Preview of NWS' New Version of Forecast
This preview is not operational and should not be used for support decisions.

Regional Weather Roundup (RWR)

Issued by National Weather Service (NWS)

                            
000
ASUS42 KTBW 231618
RWRFL 
FLORIDA REGIONAL WEATHER ROUNDUP
NATIONAL WEATHER SERVICE TAMPA BAY RUSKIN FL
1200 PM EDT THU MAY 23 2019

NOTE: "FAIR" INDICATES FEW OR NO CLOUDS BELOW 12,000 FEET WITH NO
SIGNIFICANT WEATHER AND/OR OBSTRUCTIONS TO VISIBILITY.

FLZ001>010-012>015-112-114-115-231700-
PANHANDLE FLORIDA
  
CITY           SKY/WX    TMP DP  RH WIND       PRES   REMARKS
PENSACOLA      PTSUNNY   86  77  74 SE14      30.19R HX  97           
PENSACOLA NAS  PTSUNNY   86  76  71 SE14      30.19R HX  96           
MILTON NAS     FAIR      85  74  69 VRB5      30.20S                  
CRESTVIEW      FAIR      87  69  54 SE5       30.22R                  
DUKE FIELD     FAIR      87  70  56 CALM      30.20R                  
VALPARAISO     FAIR      85  72  64 S9        30.20R                  
MARY ESTHER    MOSUNNY   84  73  69 SE8       30.20R                  
PANAMA CITY    FAIR      88  65  46 E7        30.19S                  
TYNDALL AFB    FAIR      86  67  53 E7        30.20R                  
APALACHICOLA   FAIR      83  67  58 E9G18     30.21S                  

STATION/POSITION SKY/WX   TEMP    WIND        PRES    WAVE   SWELL
                          AIR SEA DIR/SP/G            HT/PER HT/PER
                          (F)     (DEG/KT/KT) (MB)    (FT/S) (FT/S)
30.1N   87.6W                                   N/A     3/ 6
29.2N   88.2W                     100/  8/ 12 1022.0R   4/ 6   3/ 6
PANAMA CITY BEAC           81 83  150/ 10/ 12 1023.1R
TOWER C          NOT AVBL

$$
FLZ011-016>038-118-127-128-134-139-239-231700-
NORTH FLORIDA
  
CITY           SKY/WX    TMP DP  RH WIND       PRES   REMARKS
MARIANNA       FAIR      86  68  54 SE5       30.21S                  
TALLAHASSEE    FAIR      86  67  52 E7        30.22S                  
PERRY          PTSUNNY   86  69  57 E7        30.23S                  
LIVE OAK       MOSUNNY   86  68  54 VRB6      30.23S                  
CROSS CITY     FAIR      86  67  51 NE8       30.20F                  
LAKE CITY      FAIR      84  64  51 NE3       30.23F                  
GAINESVILLE    PTSUNNY   90  68  48 E10       30.24S                  
WILLISTON      PTSUNNY   85  68  55 NE6       30.21R                  
PALATKA        FAIR      90  68  48 NE10      30.23R                  
MAYPORT NAS    FAIR      85  70  60 E12       30.25R                  
JACKSONVILLE   FAIR      86  68  54 E13G21    30.23R                  
JAX NAS        PTSUNNY   86  68  54 NE7       30.24R                  
JAX CECIL      PTSUNNY   91  68  46 E6        30.23R HX  95           
FERNANDINA BEA FAIR      83  71  66 E12       30.26R                  
ST AUGUSTINE   FAIR      82  71  69 E13       30.25R                  
PALM COAST     PTSUNNY   82  70  65 E6        30.23R                  

STATION/POSITION SKY/WX   TEMP    WIND        PRES    WAVE   SWELL
                          AIR SEA DIR/SP/G            HT/PER HT/PER
                          (F)     (DEG/KT/KT) (MB)    (FT/S) (FT/S)
SHELL POINT      NOT AVBL
KEATON BEACH               82     100/  3/  4 1023.4R
CEDAR KEY                  80     140/  5/  6 1022.6F
FERNANDINA                 84 82   70/  5/  9 1025.3R
30.7N   81.3W                 80                N/A     3/ 6
MAYPORT                    80 81   70/ 10/ 13 1024.7R
31.4N   80.9W              78 79   70/  8/ 10 1025.2R   3/ 6   3/ 6
ST AUGUSTINE               79 81   80/ 10/ 11 1024.5R

$$
FLZ040-043>046-052-053-057-058-063-144-231700-
INTERIOR CENTRAL FLORIDA
  
CITY           SKY/WX    TMP DP  RH WIND       PRES   REMARKS
OCALA          PTSUNNY   85  69  58 E10       30.21S                  
LEESBURG       FAIR      86  69  56 E8        30.20F                  
SANFORD        FAIR      87  69  54 VRB7G18   30.19S                  
ORLANDO EXEC   FAIR      86  67  52 E8G18     30.19S                  
ORLANDO INTL   FAIR      86  67  52 NE15      30.18F                  
KISSIMMEE      FAIR      85  69  58 E9        30.19F                  
WINTER HAVEN   FAIR      87  68  52 E15       30.19S                  
LAKELAND       MOSUNNY   86  66  51 E12G21    30.18S                  
BARTOW         MOSUNNY   86  68  54 E13G20    30.17S                  
SEBRING        PTSUNNY   87  67  50 E14G20    30.16F                  
OKEECHOBEE     FAIR      86  68  54 E9G16     30.15S                  

$$
FLZ041-047-054-059-064-141-147-231700-
EAST CENTRAL FLORIDA
  
CITY           SKY/WX    TMP DP  RH WIND       PRES   REMARKS
ORMOND BEACH   MOSUNNY   82  72  69 E9        30.21S                  
DAYTONA BEACH  FAIR      83  73  72 E13       30.22S                  
DELAND         FAIR      84  70  61 NE10      30.20S                  
NEW SMYRNA BEA PTSUNNY   82  72  69 E12       30.23R                  
TITUSVILLE     PTSUNNY   88  70  55 NE12      30.20S                  
CAPE CANAVERAL FAIR      83  61  47 E15       30.19R                  
PATRICK AFB    FAIR      84  74  71 E15       30.18S                  
MELBOURNE      PTSUNNY   85  72  65 E15       30.18S                  
VERO BEACH     FAIR      84  71  65 E18       30.18R                  
FT PIERCE      PTSUNNY   85  70  60 E14G21    30.17R                  

STATION/POSITION SKY/WX   TEMP    WIND        PRES    WAVE   SWELL
                          AIR SEA DIR/SP/G            HT/PER HT/PER
                          (F)     (DEG/KT/KT) (MB)    (FT/S) (FT/S)
28.5N   80.2W              79      60/ 14/ 16 1023.1
28.9N   78.5W              77 79   70/ 16/ 19 1023.6R   4/ 6   2/ 8
TRIDENT PIER               83 82   60/ 12/ 16 1023.9R
28.4N   80.5W                 80                N/A     3/ 5
27.5N   80.2W                 79                N/A     3/ 5

$$
FLZ050-056-061-142-242-148-248-149-249-151-251-155-255-
160-260-231700-
WEST CENTRAL FLORIDA
  
CITY           SKY/WX    TMP DP  RH WIND       PRES   REMARKS
CRYSTAL RIVER  FAIR      88  68  51 E10G16    30.19S                  
INVERNESS      FAIR      88  70  55 E9G17     30.19F                  
BROOKSVILLE    FAIR      88  67  49 E13G20    30.18S                  
CLEARWATER AIR FAIR      82  61  47 E8        30.17S                  
ST PETE CLEARW FAIR      84  64  50 E7        30.17S                  
TAMPA INTL     FAIR      87  57  35 VRB6      30.17S                  
TAMPA EXEC     FAIR      88  63  42 E10       30.18R                  
PLANT CITY     FAIR      88  66  48 E10G21    30.19S                  
MACDILL AFB    FAIR      86  60  41 SE12      30.16S                  
PETER O KNIGHT CLOUDY    88  63  42 E10G16    30.17S                  
ST PETERSBURG  FAIR      79  68  69 E10       30.15S                  
SARASOTA       FAIR      87  65  47 E9        30.14S                  
VENICE         FAIR      90  66  45 E12       30.14F                  

STATION/POSITION SKY/WX   TEMP    WIND        PRES    WAVE   SWELL
                          AIR SEA DIR/SP/G            HT/PER HT/PER
                          (F)     (DEG/KT/KT) (MB)    (FT/S) (FT/S)
27.3N   84.2W                 80                N/A     4/ 6
CLEARWATER BEACH           83 85   60/  5/  9 1021.7R
MIDDLE TAMPA BAY           80      50/  9/ 10 1021.6R
VENICE                     85 83   70/  8/ 14 1020.5F

$$
FLZ066-069-070-075>078-162-262-165-265-231700-
SOUTHWEST FLORIDA AND KEYS
  
CITY           SKY/WX    TMP DP  RH WIND       PRES   REMARKS
PUNTA GORDA    FAIR      86  63  45 NE14G22   30.15S                  
FT MYERS       PTSUNNY   85  67  54 E13       30.12F                  
SOUTHWEST INTL FAIR      87  64  46 E15G24    30.13S                  
NAPLES         FAIR      86  68  54 E16       30.11F                  
MARCO ISLAND   FAIR      87  69  54 E13       30.13S                  
IMMOKALEE      FAIR      88  66  48 NE16      30.12R                  
MARATHON       FAIR      88  68  51 E16G23    30.09S                  
KEY WEST NAS   FAIR      88  67  49 E20       30.09S                  
KEY WEST INTL  FAIR      86  69  56 E16G24    30.09S                  

STATION/POSITION SKY/WX   TEMP    WIND        PRES    WAVE   SWELL
                          AIR SEA DIR/SP/G            HT/PER HT/PER
                          (F)     (DEG/KT/KT) (MB)    (FT/S) (FT/S)
NAPLES                     85 84              1019.9S
DRY TORTUGAS               81     100/ 19/ 20 1018.9F
SAND KEY                   81                 1018.7S
SOMBRERO KEY               81                 1018.2S

$$
FLZ067-068-071>074-168-172>174-231700-
SOUTHEAST FLORIDA 
  
CITY           SKY/WX    TMP DP  RH WIND       PRES   REMARKS
W PALM BEACH   MOSUNNY   85  70  60 E16G24    30.15S                  
BOCA RATON     MOSUNNY   86  68  54 E17       30.14S                  
FT LAUDER-EXEC FAIR      86  68  54 E15       30.13S                  
FT LAUDERDALE  FAIR      84  69  60 E16       30.12S                  
POMPANO BEACH  FAIR      86  68  54 E14       30.13S                  
PEMBROKE PINES FAIR      85  67  54 NE16G22   30.14S                  
OPA LOCKA      FAIR      86  68  54 E16       30.13S                  
MIAMI          PTSUNNY   87  68  52 E21       30.12S                  
WEST KENDALL   FAIR      87  68  52 E22       30.11S                  
HOMESTEAD      FAIR      84  70  62 NE18G24   30.11R                  

STATION/POSITION SKY/WX   TEMP    WIND        PRES    WAVE   SWELL
                          AIR SEA DIR/SP/G            HT/PER HT/PER
                          (F)     (DEG/KT/KT) (MB)    (FT/S) (FT/S)
PORT EVERGLADES            81      70/  9/ 13 1020.4
VIRGINIA KEY               81 84   50/ 13/ 16 1019.6R
LAKE WORTH                 80 81              1022.0R
SETTLEMENT POINT           80      50/ 14/ 15 1021.0S

$$